STARLINK-31862, 59786

Orbit data source: Space-Track

STARLINK-31862, 59786 is a payload satellite owned by SpaceX/Seattle (US) in LEO that was launched on Sat, 18 May 2024 UTC via an FALCON 9 launch vehicle from the Air Force Eastern Test Range (AFETR). Payload-class satellites include a variety of spacecraft equipped with specific instruments for various scientific and technological missions. These include communications satellites like Starlink; space stations such as the ISS; scientific satellites like the Hubble; Earth observation satellites from companies like Planet Labs, Umbra, and HawkEye 360; GPS; miniature CubeSats for education and research; and military/defense satellites.

Loading next visibility...
Identifier
59786, 2024-093E
Orbit
LEO
Last TLE update
1 day ago
Origin
Manufacturer
SpaceX/Seattle
Mission
Operational spacecraft
Bus & Motor
STARLINK V2M, Unknown motor
Mass
730 kg wet, ~700 kg dry
Launch date (UTC)
2024-05-18 (1 year ago)
Launch vehicle
FALCON 9
Launch site
Air Force Eastern Test Range (AFETR)
Object type
Payload
Rocket body
Debris
Shape & HBR
Unknown
Radar Cross Section
Large (>1 m²)

Expand to show TLE details & history

TLE from 1 day ago
0 STARLINK-31862
1 59786U 24093E   25128.29804106  .00001742  00000-0  72819-4 0  9996
2 59786  43.0011 133.2493 0001257 260.4806  99.5904 15.27580949 55996
Epoch: 2025-05-08T07:09Z
Definitive object data (Epoch: 2025-05-08T07:09:10.747Z)
Latitude
Longitude
159.58398°
Altitude
482.966 km
Speed
7.626 km/s
True Right ascension
08h 52m 59s
True Declination
0° 00' 00"
Sunlit
Object was in daylight at TLE epoch
Visualization TLE readout
Latitude
-43.15877°
Longitude
63.70595°
Altitude
495.521 km
Speed
7.618 km/s
Apparent Right ascension
04h 01m 21s
Apparent Declination
-43° 50' 10"
Sunlit
Object is in daylight
Visualization observer readout
Local Sidereal Time
17:35:39
Azimuth
110.348° ESE
Elevation
-72.079°
Doppler factor
1
Orbital elements
Apogee altitude
485.854 km
Perigee altitude
484.129 km
Semi-major axis
6,863.128 km
Eccentricity
0.0001257
Inclination
43.0011°
RAAN
133.2493°
Arg. of periapsis
260.4806°
True anomaly
99.6046°
Mean anomaly
99.5904°
Eccentric anomaly
99.5975°
Mean motion
3.81733 °/min
BSTAR
0.000072819
Orbital period
94.31 mins
Loading maneuver chart data...
Loading SW <> Apogee altitude chart data...
Loading historical data...
Loading historical data...
Loading historical data...
Loading historical data...
Loading historical data...
Loading historical data...
Loading historical data...

STARLINK-31862 Visibility forecast

Observer location: undefined°, undefined°

Span
Click to sort rows by Start time (UTC) header in descending order
Start Az.
Max El. time (UTC)
Max El. Az.
Max El.
End time (UTC)
End Az.
5 mins2025-05-10 03:19:19.907Z217.323° SW2025-05-10 03:21:19.907Z159.305° S36.001°2025-05-10 03:24:19.907Z82.411° E
5 mins2025-05-10 04:58:19.907Z276.164° WNW2025-05-10 05:00:19.907Z346.355° N41.092°2025-05-10 05:03:19.907Z68.775° E
5 mins2025-05-10 06:37:19.907Z294.965° NW2025-05-10 06:39:19.907Z348.022° N39.369°2025-05-10 06:42:19.907Z83.915° E
5 mins2025-05-10 08:16:19.907Z276.853° WNW2025-05-10 08:18:19.907Z223.625° SW39.234°2025-05-10 08:21:19.907Z130.082° SE
|